Location: Newark
(40.3500°N, 15.2333°E)
Time: 00:58:25
(UTC+00:00)

Vanguard 1 - Pass Details

Date: 26 January 2020
Orbit: 650 x 3833 km, 34.2° (Epoch: 20 February)

Event Time Altitude Azimuth Distance (km) Brightness Sun altitude
Rises 22:34:29 0° 254° (WSW) 4,179 - -66.9°
Reaches altitude 10° 22:41:39 10° 212° (SSW) 4,067 - -67.4°
Maximum altitude 22:42:30 10° 208° (SSW) 4,158 - -67.4°
Drops below altitude 10° 22:43:23 10° 203° (SSW) 4,271 - -67.5°
Sets 22:54:08 0° 167° (SSE) 6,441 - -68.0°
